Location: Gönnheim
(49.4488°N, 8.2383°E)
Time: 04:53:55
(UTC+00:00)

PSLV R/B - Pass Details

Date: 19 May 2025
Orbit: 402 x 431 km, 97.7° (Epoch: 14 June)

Event Time Altitude Azimuth Distance (km) Brightness Sun altitude
Exits shadow 20:52:23 21° 172° (S) 1,016 4.7 -12.9°
Maximum altitude 20:54:26 77° 256° (WSW) 437 3.3 -13.1°
Drops below altitude 10° 20:57:42 10° 344° (NNW) 1,527 7.3 -13.4°
Sets 20:59:44 0° 346° (NNW) 2,406 8.5 -13.6°
